Location: Little Chesterford
(52.0500°N, 0.1833°E)
Time: 03:57:16
(UTC+00:00)

Cosmos 2100 Rocket - Pass Details

Date: 26 September 2023
Orbit: 956 x 999 km, 82.9° (Epoch: 29 November)

Event Time Altitude Azimuth Distance (km) Brightness Sun altitude
Rises 20:33:22 0° 352° (N) 3,651 7.6 -24.8°
Reaches altitude 10° 20:36:03 10° 360° (N) 2,700 6.7 -25.2°
Enters shadow 20:41:35 41° 63° (ENE) 1,355 4.5 -25.9°
